[[{"header":{"parameterUnit":"m.s-1","parameterCategory":1,"la1":30.2992,"la2":30.254,"lo1":-89.0895,"lo2":-89.0443,"dy":0.0025,"dx":0.0025,"nx":19,"ny":19,"refTime":"2026-04-23T21:00:00:Z","depth":0,"parameterNumber":2,"parameterNumberName":"U-component_of_WINDS"},"data":[0,0,0,-1.248,-1.2482,-1.2583,-1.2584,-1.2715,-1.2716,0,0,0,0,0,0,0,0,0,0,0,-1.2448,-1.2448,-1.248,-1.2482,-1.2583,-1.2584,-1.2715,-1.2716,0,0,0,0,0,0,0,0,0,0,0,-1.2447,-1.2448,-1.2449,-1.2483,-1.2583,-1.2584,-1.2714,-1.2638,0,0,0,0,0,0,0,0,0,0,-1.254,-1.2507,-1.2448,-1.2449,-1.2483,-1.2583,-1.2584,-1.2635,-1.2643,-1.2669,0,-1.2687,0,-1.2703,-1.2725,-1.2725,0,0,0,-1.2485,-1.25,-1.2529,-1.2449,-1.2484,-1.2583,-1.2538,-1.2639,-1.2649,-1.268,-1.2689,-1.2694,-1.2706,-1.2725,-1.2726,-1.2854,-1.2854,0,0,-1.248,-1.2465,-1.2522,-1.2535,-1.2515,-1.2535,-1.2542,-1.2645,-1.2656,-1.269,-1.2697,-1.2708,-1.2726,-1.2727,-1.2853,-1.2854,0,0,0,-1.2462,-1.2461,-1.2488,-1.2529,-1.2547,-1.2538,-1.2545,-1.2652,-1.2661,-1.2699,-1.2709,-1.2727,-1.2729,-1.2853,-1.2853,-1.2858,0,0,0,-1.2458,-1.2451,-1.2485,-1.2478,-1.2545,-1.26,-1.2549,-1.2654,-1.2666,-1.2709,-1.2727,-1.273,-1.2852,-1.2853,-1.2857,-1.2863,0,0,0,-1.2442,-1.2449,-1.2462,-1.2477,-1.2519,-1.2598,-1.2614,-1.2657,-1.2672,-1.2725,-1.273,-1.2852,-1.2853,-1.2856,-1.2862,-1.2891,0,0,0,-1.2421,-1.2469,-1.2462,-1.252,-1.2518,-1.26,-1.2614,-1.2677,-1.2723,-1.2728,-1.2852,-1.2853,-1.2856,-1.2861,-1.2889,-1.2911,-1.2918,0,0,-1.2473,-1.2475,-1.2509,-1.2506,-1.2585,-1.2586,-1.2667,-1.2725,-1.2747,-1.2818,-1.2821,-1.2857,-1.2862,-1.289,-1.2971,-1.2977,0,0,0,-1.2521,-1.2545,-1.257,-1.261,-1.2653,-1.269,-1.2737,-1.2758,-1.2819,-1.2778,-1.2877,-1.2881,-1.2898,-1.2909,-1.2914,-1.2929,-1.2858,-1.2858,-1.2858,-1.2574,-1.2594,-1.2653,-1.2684,-1.2725,-1.277,-1.2805,-1.2843,-1.2856,-1.2878,-1.2899,-1.2945,-1.2957,-1.2961,-1.2977,-1.2914,-1.2914,-1.2914,-1.2914,-1.265,-1.2687,-1.2699,-1.2759,-1.2782,-1.2835,-1.2882,-1.2889,-1.2943,-1.2931,-1.2948,-1.2932,-1.2967,-1.2982,-1.2915,-1.2914,-1.2914,-1.2914,-1.2914,-1.2685,-1.2706,-1.2729,-1.2788,-1.2833,-1.2866,-1.2916,-1.2937,-1.2957,-1.2973,-1.2996,-1.2996,-1.2997,-1.2983,-1.2983,-1.2983,-1.2983,-1.2984,-1.2984,-1.2712,-1.2737,-1.2774,-1.2822,-1.285,-1.289,-1.2937,-1.2966,-1.3004,-1.3016,-1.3016,-1.3025,-1.2966,-1.2949,-1.2986,-1.2986,-1.2985,-1.2985,-1.2985,-1.2778,-1.2766,-1.2823,-1.285,-1.2908,-1.295,-1.2975,-1.3033,-1.3061,-1.3085,-1.3091,-1.3045,-1.3049,-1.3045,-1.3031,-1.3087,-1.3087,-1.3087,-1.3087,-1.2806,-1.2809,-1.2871,-1.2913,-1.2958,-1.2985,-1.3052,-1.3089,-1.3127,-1.3146,-1.3142,-1.3126,-1.3122,-1.3129,-1.3123,-1.311,-1.3185,-1.3185,-1.3185,-1.2847,-1.2855,-1.2906,-1.2938,-1.2984,-1.3025,-1.3087,-1.3139,-1.318,-1.319,-1.3161,-1.3157,-1.3132,-1.3124,-1.3131,-1.3121,-1.3099,0,0]},{"header":{"parameterUnit":"m.s-1","parameterCategory":1,"la1":30.2992,"la2":30.254,"lo1":-89.0895,"lo2":-89.0443,"dy":0.0025,"dx":0.0025,"nx":19,"ny":19,"refTime":"2026-04-23T21:00:00:Z","depth":0,"parameterNumber":3,"parameterNumberName":"V-component_of_WINDS"},"data":[0,0,0,3.2372,3.237,3.226,3.226,3.211,3.2108,0,0,0,0,0,0,0,0,0,0,0,3.2401,3.24,3.2372,3.2369,3.226,3.226,3.211,3.2108,0,0,0,0,0,0,0,0,0,0,0,3.2401,3.24,3.2398,3.2369,3.226,3.226,3.211,3.2196,0,0,0,0,0,0,0,0,0,0,3.2303,3.2327,3.24,3.2398,3.2368,3.226,3.226,3.22,3.219,3.2156,0,3.2126,0,3.2115,3.2098,3.2097,0,0,0,3.2371,3.2335,3.2309,3.2398,3.2367,3.2261,3.231,3.2195,3.2184,3.2143,3.2124,3.2119,3.2113,3.2097,3.2096,3.1896,3.1895,0,0,3.2377,3.2378,3.2317,3.2302,3.2321,3.2313,3.2307,3.2188,3.2167,3.2124,3.2115,3.211,3.2096,3.2095,3.1897,3.1896,0,0,0,3.2393,3.2382,3.236,3.2308,3.2289,3.231,3.2302,3.2172,3.2165,3.2114,3.2108,3.2095,3.2093,3.1898,3.1897,3.1848,0,0,0,3.2397,3.2392,3.2362,3.2362,3.2291,3.223,3.2288,3.2173,3.216,3.2109,3.2095,3.2091,3.1899,3.1897,3.1852,3.1824,0,0,0,3.2409,3.2393,3.2377,3.2362,3.2315,3.2232,3.2218,3.217,3.2156,3.2097,3.2091,3.19,3.1898,3.1855,3.183,3.1772,0,0,0,3.2421,3.2333,3.2376,3.2275,3.2316,3.2204,3.2218,3.2134,3.2077,3.2094,3.1899,3.1897,3.1856,3.1833,3.1776,3.1724,3.1703,0,0,3.2311,3.232,3.2261,3.2296,3.2176,3.222,3.2092,3.2038,3.203,3.194,3.1936,3.1851,3.183,3.1773,3.1584,3.1567,0,0,0,3.2226,3.2184,3.2152,3.21,3.2059,3.202,3.1987,3.1967,3.1891,3.1985,3.1814,3.1802,3.1769,3.1744,3.1729,3.17,3.1885,3.1886,3.1886,3.207,3.2068,3.1969,3.1953,3.1902,3.1869,3.1827,3.1794,3.1804,3.1763,3.1737,3.1623,3.1593,3.1583,3.1552,3.1709,3.1709,3.1709,3.1709,3.1908,3.1848,3.1865,3.1776,3.1773,3.1697,3.1661,3.1671,3.1598,3.1642,3.1612,3.166,3.1564,3.1538,3.1705,3.1706,3.1706,3.1706,3.1707,3.1806,3.1776,3.1756,3.1681,3.1623,3.1608,3.1539,3.1538,3.1535,3.1506,3.1477,3.1478,3.1478,3.1492,3.1492,3.1492,3.1491,3.1491,3.1491,3.1708,3.1686,3.1629,3.1579,3.1546,3.1501,3.1467,3.1433,3.1395,3.14,3.1399,3.1413,3.1556,3.1592,3.1485,3.1486,3.1486,3.1487,3.1487,3.1544,3.1581,3.1493,3.146,3.1401,3.1343,3.1343,3.1274,3.1246,3.1212,3.1232,3.1338,3.1347,3.1358,3.1388,3.1233,3.1233,3.1233,3.1233,3.1457,3.1462,3.1372,3.132,3.1268,3.1259,3.1157,3.1129,3.1106,3.1088,3.111,3.115,3.1161,3.1163,3.1178,3.1206,3.1009,3.1009,3.1008,3.1356,3.1356,3.1271,3.1252,3.1206,3.1165,3.1069,3.1006,3.0987,3.0999,3.1074,3.1083,3.1147,3.1168,3.1181,3.1205,3.1256,0,0]}]]